Weather History for KSUX - September, 2013

Change the Weather History Date:

Saturday, September 7, 2013

  Actual Average Record
Temperature  
Mean Temperature 78 °F 67 °F  
Max Temperature 87 °F 79 °F 101 °F (1971)
Min Temperature 68 °F 55 °F 38 °F (1986)
Degree Days  
Heating Degree Days 0 2  
Month to date heating degree days 0 11  
Since 1 July heating degree days 20 26  
Cooling Degree Days 13 4  
Month to date cooling degree days 54 32  
Year to date cooling degree days 855 809  
Growing Degree Days 28 (Base 50)    
Moisture  
Dew Point 70 °F    
Average Humidity 81    
Maximum Humidity 97    
Minimum Humidity 65    
Precipitation  
Precipitation T in 0.10 in 2.14 in (1940)
Month to date precipitation 1.10 0.73  
Year to date precipitation 21.23 21.27  
Snow  
Snow 0.00 in 0.00 in 0.00 in ()
Month to date snowfall 0.0 0.0  
Since 1 July snowfall 0.0 0.0  
Since 1 September snowfall 0.0 0.0  
Snow Depth 0.00 in    
Sea Level Pressure  
Sea Level Pressure 29.89 in    
Wind  
Wind Speed 6 mph (ENE)    
Max Wind Speed 17 mph    
Max Gust Speed 21 mph    
Visibility 7 miles    
Events Fog , Rain , Thunderstorm    
T = Trace of Precipitation, MM = Missing Value Source: NWS Daily Summary

Daily Weather History Graph

Daily Weather History Graph

Search for Another Location

Airport or City:

Trip Planner

Search our weather history database for the weather conditions in past years. The results will help you decide how hot, cold, wet, or windy it might be!

Date:

Astronomy

Sep. 07, 2013 Rise Set
Actual Time 6:57 AM CDT 7:48 PM CDT
Civil Twilight 6:28 AM CDT 8:17 PM CDT
Nautical Twilight 5:54 AM CDT 8:51 PM CDT
Astronomical Twilight 5:19 AM CDT 9:26 PM CDT
Moon 9:16 AM CDT (9/7) 8:43 PM CDT (9/7)
Length of Visible Light 13h 48m
Length of Day
12h 51m
Waxing Crescent, 5% of the Moon is Illuminated
Sep 7
Waxing Crescent
Sep 12
First Quarter
Sep 19
Full
Sep 26
Last Quarter
Oct 4
New

Hourly Weather History & Observations

Time (CDT) Temp. Heat Index Dew Point Humidity Pressure Visibility Wind Dir Wind Speed Gust Speed Precip Events Conditions
12:52 AM 72.0 °F - 69.1 °F 91% 29.86 in 10.0 mi East 6.9 mph - N/A   Clear
1:52 AM 71.1 °F - 69.1 °F 93% 29.86 in 8.0 mi ESE 8.1 mph - N/A   Clear
2:52 AM 70.0 °F - 68.0 °F 93% 29.85 in 7.0 mi ESE 9.2 mph - N/A   Clear
3:52 AM 69.1 °F - 66.9 °F 93% 29.84 in 7.0 mi ESE 9.2 mph - N/A   Clear
4:52 AM 69.1 °F - 66.9 °F 93% 29.83 in 9.0 mi ESE 9.2 mph - N/A   Clear
5:52 AM 68.0 °F - 66.9 °F 96% 29.83 in 7.0 mi ESE 8.1 mph - N/A   Clear
6:52 AM 69.1 °F - 66.9 °F 93% 29.85 in 9.0 mi Calm Calm - N/A   Clear
7:52 AM 70.0 °F - 68.0 °F 93% 29.86 in 8.0 mi East 5.8 mph - N/A   Clear
8:52 AM 72.0 °F - 68.0 °F 87% 29.86 in 7.0 mi Calm Calm - N/A   Clear
9:52 AM 73.9 °F - 69.1 °F 85% 29.87 in 9.0 mi Calm Calm - N/A   Clear
10:52 AM 79.0 °F - 70.0 °F 74% 29.89 in 10.0 mi North 5.8 mph - N/A   Clear
11:26 AM 78.8 °F - 71.6 °F 78% 29.96 in 10.0 mi WNW 9.2 mph - N/A Thunderstorm Clear
11:52 AM 75.9 °F - 71.1 °F 85% 29.88 in 8.0 mi ESE 16.1 mph - 0.00 in Rain , Thunderstorm Light Thunderstorms and Rain
12:07 PM 75.2 °F - 69.8 °F 83% 29.92 in 10.0 mi NW 11.5 mph 18.4 mph 0.00 in Rain Light Rain
12:52 PM 77.0 °F - 72.0 °F 84% 29.91 in 9.0 mi WNW 6.9 mph - 0.00 in   Clear
1:52 PM 82.9 °F 88.0 °F 72.0 °F 69% 29.88 in 10.0 mi NNE 10.4 mph - N/A   Clear
2:27 PM 82.4 °F 87.2 °F 71.6 °F 70% 29.89 in 10.0 mi East 9.2 mph - N/A   Clear
2:52 PM 82.9 °F 88.0 °F 72.0 °F 69% 29.89 in 10.0 mi NNE 9.2 mph - N/A   Clear
3:52 PM 86.0 °F 93.0 °F 73.0 °F 65% 29.90 in 10.0 mi North 6.9 mph - N/A   Clear
4:52 PM 86.0 °F 93.8 °F 73.9 °F 67% 29.88 in 10.0 mi ENE 8.1 mph - N/A   Clear
5:52 PM 84.9 °F 92.1 °F 73.9 °F 69% 29.89 in 10.0 mi NNE 9.2 mph - N/A   Clear
6:52 PM 82.9 °F 88.8 °F 73.0 °F 72% 29.90 in 10.0 mi NE 6.9 mph - N/A   Clear
7:52 PM 81.0 °F 86.2 °F 73.9 °F 79% 29.91 in 10.0 mi ENE 4.6 mph - N/A   Clear
8:52 PM 73.9 °F - 72.0 °F 93% 29.92 in 8.0 mi Calm Calm - N/A   Clear
9:52 PM 73.0 °F - 71.1 °F 93% 29.92 in 3.0 mi Calm Calm - N/A   Clear
10:07 PM 73.4 °F - 71.6 °F 94% 29.93 in 2.0 mi Calm Calm - N/A   Clear
10:18 PM 71.6 °F - 71.6 °F 100% 29.94 in 0.8 mi Calm Calm - N/A   Clear
10:32 PM 71.6 °F - 71.6 °F 100% 29.94 in 0.2 mi Calm Calm - N/A Fog Fog
10:43 PM 71.6 °F - 71.6 °F 100% 29.94 in 0.2 mi Calm Calm - N/A Fog Fog
10:52 PM 71.1 °F - 70.0 °F 96% 29.92 in 0.2 mi Calm Calm - N/A Fog Fog
11:22 PM 69.8 °F - 69.8 °F 100% 29.94 in 0.2 mi Calm Calm - N/A Fog Fog
11:42 PM 71.6 °F - 69.8 °F 94% 29.94 in 0.2 mi Calm Calm - N/A Fog Fog
11:48 PM 71.6 °F - 69.8 °F 94% 29.94 in 0.5 mi Calm Calm - N/A Fog Fog
11:52 PM 71.1 °F - 70.0 °F 96% 29.92 in 0.8 mi Calm Calm - N/A   Mist